Simultaneous Nadir Overpasses (SNOs) Predictions

Prediction of SNOs between NPP and TERRA Satellite Orbit:

Table of predicted SNOs for the next 14.0 days since TLE Epoch: 12/5/2015
Index Date (NPP) Time (NPP) Lat,Lon (NPP) SZA (NPP ) Date (TERRA) Time (TERRA) Lat,Lon (TERRA) SZA (TERRA ) Distance(km) Time Diff (sec)
1 12/07/2015 17:34:06 -68.61, 95.42 88.88 12/07/2015 17:34:47 -68.60, 95.40 88.89 1.31 41
2 12/07/2015 18:24:50 68.50, -97.13 91.02 12/07/2015 18:24:14 68.49, -97.10 91.00 2.21 36
3 12/10/2015 09:00:27 69.20, 43.07 91.98 12/10/2015 09:01:37 69.07, 44.25 91.86 48.80 70
4 12/10/2015 09:50:59 -68.56,-148.75 88.66 12/10/2015 09:51:14 -68.58,-148.74 88.65 1.67 15
5 12/10/2015 10:41:43 68.46, 18.70 91.24 12/10/2015 10:40:41 68.46, 18.76 91.24 2.64 62
6 12/13/2015 01:17:10 68.62, 159.62 91.62 12/13/2015 01:18:11 68.64, 159.60 91.64 2.28 61
7 12/13/2015 02:07:52 -68.52, -32.93 88.48 12/13/2015 02:07:41 -68.54, -32.89 88.47 2.67 11
8 12/13/2015 02:58:27 67.93, 135.13 90.93 12/13/2015 02:57:16 67.97, 134.07 90.97 44.50 71
9 12/15/2015 17:34:03 68.59, -84.56 91.75 12/15/2015 17:34:38 68.59, -84.57 91.75 0.48 35
10 12/15/2015 18:24:45 -68.49, 82.89 88.36 12/15/2015 18:24:08 -68.49, 82.94 88.35 2.27 37
11 12/18/2015 09:00:20 -69.14,-136.85 87.60 12/18/2015 09:01:30 -69.04,-135.76 87.70 44.65 70
12 12/18/2015 09:50:55 68.56, 31.25 91.82 12/18/2015 09:51:04 68.53, 31.24 91.79 3.40 9
13 12/18/2015 10:41:36 -68.40,-161.23
